Wetterdaten: aktuell Samstag, 08.05.2021 01:10
Datum Zeit Temperatur Luftfeuchte Luftdruck Regen Wind Richtung Richtung Sonnenschein ET UV Solar Taupunkt Windchill Windböen Empfang
08.05.2021 01:10 5,1 °C 76 % 1020,5 hPa 0,0 l/m² 0,5 km/h (0 Bft) W 265 ° 0 min 0,000 mm 0,0 UV-I 0 W/m² 1,2 °C 5,1 °C 3,2 km/h (1 Bft) 100 %
08.05.2021 01:00 5,3 °C 75 % 1020,5 hPa 0,0 l/m² 0,3 km/h (0 Bft) W 265 ° 0 min 0,025 mm 0,0 UV-I 0 W/m² 1,2 °C 5,3 °C 3,2 km/h (1 Bft) 100 %
08.05.2021 00:50 5,4 °C 75 % 1020,3 hPa 0,0 l/m² 0,9 km/h (0 Bft) W 265 ° 0 min 0,000 mm 0,0 UV-I 0 W/m² 1,3 °C 5,4 °C 3,2 km/h (1 Bft) 99 %
08.05.2021 00:40 5,7 °C 74 % 1020,1 hPa 0,0 l/m² 1,1 km/h (1 Bft) W 265 ° 0 min 0,000 mm 0,0 UV-I 0 W/m² 1,4 °C 5,7 °C 4,8 km/h (1 Bft) 100 %
08.05.2021 00:30 6,1 °C 73 % 1020,0 hPa 0,0 l/m² 1,8 km/h (1 Bft) W 265 ° 0 min 0,000 mm 0,0 UV-I 0 W/m² 1,6 °C 6,1 °C 4,8 km/h (1 Bft) 100 %
08.05.2021 00:20 6,3 °C 72 % 1020,0 hPa 0,0 l/m² 1,6 km/h (1 Bft) W 265 ° 0 min 0,000 mm 0,0 UV-I 0 W/m² 1,6 °C 6,3 °C 6,4 km/h (2 Bft) 100 %
08.05.2021 00:10 6,4 °C 72 % 1019,8 hPa 0,0 l/m² 5,5 km/h (1 Bft) W 265 ° 0 min 0,000 mm 0,0 UV-I 0 W/m² 1,7 °C 5,5 °C 9,7 km/h (2 Bft) 99 %
08.05.2021 00:00 6,7 °C 71 % 1019,7 hPa 0,0 l/m² 5,1 km/h (1 Bft) W 265 ° 0 min 0,000 mm 0,0 UV-I 0 W/m² 1,8 °C 6,0 °C 9,7 km/h (2 Bft) 100 %
07.05.2021 23:50 6,9 °C 70 % 1019,5 hPa 0,0 l/m² 9,5 km/h (2 Bft) W 265 ° 0 min 0,000 mm 0,0 UV-I 0 W/m² 1,8 °C 5,0 °C 20,9 km/h (4 Bft) 100 %
07.05.2021 23:40 6,9 °C 71 % 1019,4 hPa 0,0 l/m² 9,5 km/h (2 Bft) W 263 ° 0 min 0,000 mm 0,0 UV-I 0 W/m² 2,0 °C 5,0 °C 14,5 km/h (3 Bft) 100 %
07.05.2021 23:30 7,1 °C 69 % 1019,2 hPa 0,0 l/m² 9,1 km/h (2 Bft) W 264 ° 0 min 0,000 mm 0,0 UV-I 0 W/m² 1,8 °C 5,4 °C 14,5 km/h (3 Bft) 100 %
07.05.2021 23:20 7,2 °C 69 % 1019,1 hPa 0,0 l/m² 8,2 km/h (2 Bft) W 267 ° 0 min 0,000 mm 0,0 UV-I 0 W/m² 1,9 °C 5,7 °C 14,5 km/h (3 Bft) 99 %
07.05.2021 23:10 7,2 °C 70 % 1019,1 hPa 0,0 l/m² 7,1 km/h (2 Bft) W 265 ° 0 min 0,000 mm 0,0 UV-I 0 W/m² 2,1 °C 5,9 °C 14,5 km/h (3 Bft) 100 %
07.05.2021 23:00 7,1 °C 71 % 1019,0 hPa 0,0 l/m² 3,4 km/h (1 Bft) W-NW 288 ° 0 min 0,025 mm 0,0 UV-I 0 W/m² 2,2 °C 7,1 °C 9,7 km/h (2 Bft) 100 %
07.05.2021 22:50 6,9 °C 71 % 1018,9 hPa 0,0 l/m² 5,6 km/h (1 Bft) W-NW 288 ° 0 min 0,000 mm 0,0 UV-I 0 W/m² 2,0 °C 6,0 °C 8,0 km/h (2 Bft) 100 %
07.05.2021 22:40 7,1 °C 69 % 1018,7 hPa 0,0 l/m² 4,1 km/h (1 Bft) W-NW 288 ° 0 min 0,000 mm 0,0 UV-I 0 W/m² 1,8 °C 7,1 °C 8,0 km/h (2 Bft) 100 %
07.05.2021 22:30 7,4 °C 67 % 1018,5 hPa 0,0 l/m² 2,9 km/h (1 Bft) W-NW 288 ° 0 min 0,000 mm 0,0 UV-I 0 W/m² 1,7 °C 7,4 °C 8,0 km/h (2 Bft) 99 %
07.05.2021 22:20 7,7 °C 66 % 1018,3 hPa 0,0 l/m² 2,1 km/h (1 Bft) W-NW 288 ° 0 min 0,000 mm 0,0 UV-I 0 W/m² 1,8 °C 7,7 °C 9,7 km/h (2 Bft) 99 %
07.05.2021 22:10 7,8 °C 66 % 1018,1 hPa 0,0 l/m² 2,8 km/h (1 Bft) W-NW 292 ° 0 min 0,000 mm 0,0 UV-I 0 W/m² 1,9 °C 7,8 °C 9,7 km/h (2 Bft) 100 %
07.05.2021 22:00 7,8 °C 67 % 1018,0 hPa 0,0 l/m² 1,2 km/h (1 Bft) W-NW 300 ° 0 min 0,025 mm 0,0 UV-I 0 W/m² 2,1 °C 7,8 °C 6,4 km/h (2 Bft) 100 %
07.05.2021 21:50 7,6 °C 69 % 1018,0 hPa 0,0 l/m² 3,0 km/h (1 Bft) W-NW 295 ° 0 min 0,000 mm 0,0 UV-I 0 W/m² 2,3 °C 7,6 °C 14,5 km/h (3 Bft) 100 %
07.05.2021 21:40 7,7 °C 72 % 1017,7 hPa 0,0 l/m² 0,3 km/h (0 Bft) N-NW 347 ° 0 min 0,000 mm 0,0 UV-I 0 W/m² 3,0 °C 7,7 °C 3,2 km/h (1 Bft) 99 %
07.05.2021 21:30 7,8 °C 72 % 1017,5 hPa 0,0 l/m² 0,2 km/h (0 Bft) N-NW 347 ° 0 min 0,000 mm 0,0 UV-I 0 W/m² 3,1 °C 7,8 °C 3,2 km/h (1 Bft) 100 %
07.05.2021 21:20 8,2 °C 72 % 1017,3 hPa 0,0 l/m² 0,2 km/h (0 Bft) N-NW 347 ° 0 min 0,000 mm 0,0 UV-I 0 W/m² 3,5 °C 8,2 °C 3,2 km/h (1 Bft) 100 %
07.05.2021 21:10 8,5 °C 71 % 1017,0 hPa 0,0 l/m² 0,1 km/h (0 Bft) N-NW 347 ° 0 min 0,000 mm 0,0 UV-I 0 W/m² 3,5 °C 8,5 °C 3,2 km/h (1 Bft) 100 %
07.05.2021 21:00 8,7 °C 70 % 1016,7 hPa 0,0 l/m² 0,7 km/h (0 Bft) N-NW 347 ° 0 min 0,026 mm 0,0 UV-I 0 W/m² 3,5 °C 8,7 °C 6,4 km/h (2 Bft) 100 %
07.05.2021 20:50 8,8 °C 68 % 1016,5 hPa 0,0 l/m² 0,3 km/h (0 Bft) N-NW 347 ° 0 min 0,000 mm 0,0 UV-I 0 W/m² 3,2 °C 8,8 °C 3,2 km/h (1 Bft) 100 %
07.05.2021 20:40 8,8 °C 67 % 1016,4 hPa 0,0 l/m² 2,6 km/h (1 Bft) N-NW 347 ° 0 min 0,000 mm 0,0 UV-I 0 W/m² 3,0 °C 8,8 °C 9,7 km/h (2 Bft) 100 %
07.05.2021 20:30 8,8 °C 68 % 1016,0 hPa 0,0 l/m² 10,2 km/h (2 Bft) W-SW 252 ° 0 min 0,000 mm 0,0 UV-I 0 W/m² 3,2 °C 7,2 °C 22,5 km/h (4 Bft) 100 %
07.05.2021 20:20 8,7 °C 70 % 1015,5 hPa 0,0 l/m² 9,2 km/h (2 Bft) W 259 ° 0 min 0,000 mm 0,0 UV-I 2 W/m² 3,5 °C 7,2 °C 20,9 km/h (4 Bft) 100 %
07.05.2021 20:10 8,8 °C 70 % 1015,1 hPa 0,0 l/m² 5,0 km/h (1 Bft) W-SW 254 ° 0 min 0,000 mm 0,0 UV-I 12 W/m² 3,6 °C 8,4 °C 11,3 km/h (2 Bft) 100 %
07.05.2021 20:00 9,7 °C 69 % 1015,2 hPa 0,4 l/m² 10,2 km/h (2 Bft) NW 322 ° 0 min 0,051 mm 0,0 UV-I 4 W/m² 4,3 °C 8,2 °C 24,1 km/h (4 Bft) 99 %
07.05.2021 19:50 10,5 °C 67 % 1014,4 hPa 0,0 l/m² 12,9 km/h (3 Bft) W 267 ° 0 min 0,000 mm 0,0 UV-I 5 W/m² 4,6 °C 10,5 °C 22,5 km/h (4 Bft) 100 %
07.05.2021 19:40 10,7 °C 64 % 1014,3 hPa 0,0 l/m² 8,8 km/h (2 Bft) W 263 ° 0 min 0,000 mm 0,0 UV-I 7 W/m² 4,2 °C 10,7 °C 29,0 km/h (5 Bft) 100 %
07.05.2021 19:31 10,8 °C 64 % 1014,1 hPa 0,0 l/m² 3,4 km/h (1 Bft) W-NW 300 ° 0 min 0,000 mm 0,0 UV-I 20 W/m² 4,3 °C 10,8 °C 8,0 km/h (2 Bft) 100 %
07.05.2021 19:20 11,2 °C 61 % 1013,9 hPa 0,0 l/m² 4,8 km/h (1 Bft) W 269 ° 0 min 0,000 mm 0,0 UV-I 33 W/m² 4,0 °C 11,2 °C 12,9 km/h (3 Bft) 100 %
07.05.2021 19:10 11,8 °C 59 % 1013,7 hPa 0,0 l/m² 2,8 km/h (1 Bft) N-NO 13 ° 0 min 0,000 mm 0,0 UV-I 26 W/m² 4,1 °C 11,8 °C 9,7 km/h (2 Bft) 100 %
07.05.2021 19:00 12,2 °C 58 % 1013,8 hPa 0,0 l/m² 2,4 km/h (1 Bft) W 263 ° 0 min 0,152 mm 0,0 UV-I 51 W/m² 4,2 °C 12,2 °C 9,7 km/h (2 Bft) 99 %
07.05.2021 18:50 12,3 °C 57 % 1013,6 hPa 0,0 l/m² 9,5 km/h (2 Bft) W-SW 255 ° 10 min 0,000 mm 0,1 UV-I 114 W/m² 4,0 °C 12,3 °C 17,7 km/h (3 Bft) 97 %
07.05.2021 18:40 12,6 °C 57 % 1013,4 hPa 0,0 l/m² 9,3 km/h (2 Bft) W 266 ° 10 min 0,000 mm 0,5 UV-I 215 W/m² 4,3 °C 12,6 °C 17,7 km/h (3 Bft) 98 %
07.05.2021 18:30 12,4 °C 58 % 1013,3 hPa 0,0 l/m² 10,3 km/h (2 Bft) W 264 ° 10 min 0,000 mm 0,5 UV-I 252 W/m² 4,4 °C 12,4 °C 17,7 km/h (3 Bft) 97 %
07.05.2021 18:20 12,3 °C 59 % 1013,4 hPa 0,0 l/m² 10,9 km/h (2 Bft) W 263 ° 10 min 0,000 mm 0,7 UV-I 316 W/m² 4,5 °C 12,3 °C 19,3 km/h (3 Bft) 98 %
07.05.2021 18:10 12,1 °C 59 % 1013,2 hPa 0,0 l/m² 11,3 km/h (2 Bft) W 260 ° 10 min 0,000 mm 0,8 UV-I 351 W/m² 4,3 °C 12,1 °C 19,3 km/h (3 Bft) 100 %
07.05.2021 18:00 11,4 °C 63 % 1012,9 hPa 0,0 l/m² 12,5 km/h (3 Bft) W-SW 254 ° 10 min 0,203 mm 0,8 UV-I 354 W/m² 4,6 °C 11,4 °C 22,5 km/h (4 Bft) 100 %
07.05.2021 17:50 11,1 °C 64 % 1012,8 hPa 0,0 l/m² 12,1 km/h (2 Bft) W 260 ° 9 min 0,000 mm 0,6 UV-I 143 W/m² 4,6 °C 11,1 °C 22,5 km/h (4 Bft) 99 %
07.05.2021 17:41 11,1 °C 66 % 1012,7 hPa 0,0 l/m² 14,8 km/h (3 Bft) W 274 ° 11 min 0,000 mm 1,0 UV-I 373 W/m² 5,0 °C 11,1 °C 27,4 km/h (4 Bft) 100 %
07.05.2021 17:30 10,5 °C 71 % 1012,8 hPa 0,0 l/m² 9,0 km/h (2 Bft) W-NW 290 ° 10 min 0,000 mm 1,1 UV-I 319 W/m² 5,5 °C 10,5 °C 22,5 km/h (4 Bft) 100 %
07.05.2021 17:20 10,7 °C 73 % 1012,8 hPa 0,0 l/m² 8,3 km/h (2 Bft) W 267 ° 10 min 0,000 mm 1,3 UV-I 465 W/m² 6,1 °C 10,7 °C 19,3 km/h (3 Bft) 100 %
07.05.2021 17:10 11,8 °C 68 % 1012,7 hPa 0,4 l/m² 10,8 km/h (2 Bft) NW 323 ° 10 min 0,000 mm 0,7 UV-I 218 W/m² 6,1 °C 11,8 °C 32,2 km/h (5 Bft) 100 %
07.05.2021 17:00 13,3 °C 59 % 1011,4 hPa 0,0 l/m² 6,0 km/h (2 Bft) N-NW 338 ° 10 min 0,229 mm 1,2 UV-I 271 W/m² 5,5 °C 13,3 °C 14,5 km/h (3 Bft) 100 %
07.05.2021 16:50 13,6 °C 60 % 1011,1 hPa 0,0 l/m² 6,5 km/h (2 Bft) NW 306 ° 10 min 0,000 mm 1,1 UV-I 180 W/m² 6,0 °C 13,6 °C 16,1 km/h (3 Bft) 100 %
07.05.2021 16:40 14,1 °C 60 % 1011,2 hPa 0,0 l/m² 5,6 km/h (1 Bft) NW 317 ° 10 min 0,000 mm 1,4 UV-I 293 W/m² 6,5 °C 14,1 °C 17,7 km/h (3 Bft) 100 %
07.05.2021 16:30 14,6 °C 57 % 1011,0 hPa 0,0 l/m² 9,7 km/h (2 Bft) W 277 ° 10 min 0,000 mm 1,3 UV-I 483 W/m² 6,2 °C 14,6 °C 25,7 km/h (4 Bft) 100 %
07.05.2021 16:20 14,2 °C 57 % 1010,4 hPa 0,0 l/m² 13,0 km/h (3 Bft) W 271 ° 10 min 0,000 mm 1,8 UV-I 284 W/m² 5,8 °C 14,2 °C 30,6 km/h (5 Bft) 98 %
07.05.2021 16:10 13,9 °C 59 % 1010,1 hPa 0,0 l/m² 7,3 km/h (2 Bft) W-SW 249 ° 10 min 0,000 mm 1,8 UV-I 453 W/m² 6,0 °C 13,9 °C 17,7 km/h (3 Bft) 97 %
07.05.2021 16:00 13,6 °C 64 % 1010,0 hPa 0,0 l/m² 4,4 km/h (1 Bft) W 267 ° 10 min 0,203 mm 1,6 UV-I 287 W/m² 6,9 °C 13,6 °C 11,3 km/h (2 Bft) 97 %
07.05.2021 15:50 13,7 °C 63 % 1010,0 hPa 0,0 l/m² 6,9 km/h (2 Bft) W 263 ° 10 min 0,000 mm 1,0 UV-I 161 W/m² 6,8 °C 13,7 °C 16,1 km/h (3 Bft) 97 %
07.05.2021 15:40 14,7 °C 60 % 1010,0 hPa 0,0 l/m² 7,0 km/h (2 Bft) W-NW 290 ° 10 min 0,000 mm 0,7 UV-I 105 W/m² 7,0 °C 14,7 °C 17,7 km/h (3 Bft) 99 %
07.05.2021 15:30 15,4 °C 54 % 1009,9 hPa 0,0 l/m² 7,0 km/h (2 Bft) NW 324 ° 10 min 0,000 mm 0,9 UV-I 122 W/m² 6,1 °C 15,4 °C 20,9 km/h (4 Bft) 100 %
07.05.2021 15:20 16,2 °C 51 % 1009,5 hPa 0,0 l/m² 6,8 km/h (2 Bft) W-SW 250 ° 10 min 0,000 mm 2,1 UV-I 438 W/m² 6,1 °C 16,2 °C 17,7 km/h (3 Bft) 100 %
07.05.2021 15:10 16,3 °C 49 % 1009,2 hPa 0,0 l/m² 10,3 km/h (2 Bft) W-SW 254 ° 10 min 0,000 mm 3,3 UV-I 470 W/m² 5,6 °C 16,3 °C 22,5 km/h (4 Bft) 100 %
07.05.2021 15:00 16,7 °C 48 % 1009,2 hPa 0,0 l/m² 8,4 km/h (2 Bft) W-SW 246 ° 10 min 0,305 mm 3,5 UV-I 544 W/m² 5,6 °C 16,7 °C 19,3 km/h (3 Bft) 100 %
07.05.2021 14:50 16,6 °C 49 % 1008,8 hPa 0,0 l/m² 7,3 km/h (2 Bft) NW 307 ° 10 min 0,000 mm 3,4 UV-I 549 W/m² 5,8 °C 16,6 °C 17,7 km/h (3 Bft) 100 %
07.05.2021 14:40 16,0 °C 54 % 1008,8 hPa 0,0 l/m² 6,5 km/h (2 Bft) W-SW 256 ° 10 min 0,000 mm 3,4 UV-I 350 W/m² 6,7 °C 16,0 °C 19,3 km/h (3 Bft) 100 %
07.05.2021 14:30 15,5 °C 53 % 1008,5 hPa 0,0 l/m² 5,4 km/h (1 Bft) W 261 ° 10 min 0,000 mm 2,9 UV-I 376 W/m² 6,0 °C 15,5 °C 19,3 km/h (3 Bft) 99 %
07.05.2021 14:20 15,4 °C 53 % 1008,5 hPa 0,0 l/m² 7,8 km/h (2 Bft) W 265 ° 10 min 0,000 mm 2,9 UV-I 588 W/m² 5,9 °C 15,4 °C 24,1 km/h (4 Bft) 97 %
07.05.2021 14:10 15,2 °C 55 % 1008,2 hPa 0,0 l/m² 4,8 km/h (1 Bft) W-SW 244 ° 10 min 0,000 mm 1,8 UV-I 225 W/m² 6,2 °C 15,2 °C 12,9 km/h (3 Bft) 97 %
07.05.2021 14:00 15,6 °C 53 % 1008,1 hPa 0,0 l/m² 2,7 km/h (1 Bft) NW 304 ° 10 min 0,203 mm 1,0 UV-I 137 W/m² 6,1 °C 15,6 °C 8,0 km/h (2 Bft) 98 %
07.05.2021 13:50 15,7 °C 49 % 1008,0 hPa 0,0 l/m² 13,1 km/h (3 Bft) W 266 ° 10 min 0,000 mm 1,7 UV-I 252 W/m² 5,0 °C 15,7 °C 25,7 km/h (4 Bft) 100 %
_ Min-Zeit 01:10 15:00 03:10 - 02:20 - - - - - - 01:10 23:40 02:20 02:40
Minimum _ 5,1 °C 48 % 1005,5 hPa - 0,0 km/h (0 Bft) - - - - - - 1,2 °C 5,0 °C 0,0 km/h (0 Bft) 96 %
_ Max-Zeit 15:00 03:40 01:00 17:10 10:40 - - 17:41 15:00 12:40 12:40 05:40 15:00 10:30 04:00
Maximum _ 16,8 °C 84 % 1020,5 hPa 0,4 l/m² 19,7 km/h
W (3 Bft)
- - 11 min 0,305 mm 5,1 UV-I 845 W/m² 7,0 °C 16,7 °C 32,2 km/h
W (5 Bft)
100 %
Durchschnitt _ 11,1 °C 67 % 1010,3 hPa #0,8 l/m² 6,5 km/h (2 Bft) W - #0 min. #0,025 mm 0,0 UV-I 0 W/m² 5,0 °C 11,0 °C 14,4 km/h (3 Bft) 99 %